Location: Sebastopol
(38.4021°N, 122.8239°W)
Time: 01:57:27
(UTC+00:00)

ADEOS - Visible Passes

Search period start: 27 February 2021 00:00
Search period end: 09 March 2021 00:00
Orbit: 792 x 794 km, 98.9° (Epoch: 26 February)

Date Brightness Start Highest point End Pass type
(mag) Time Alt. Az. Time Alt. Az. Time Alt. Az.
27 Feb 6.4 11:39:43 10° ENE 11:42:04 13° E 11:44:23 10° ESE visible
27 Feb 3.5 13:16:49 10° N 13:22:01 69° WNW 13:27:12 10° SSW visible
28 Feb 3.9 12:48:20 10° NNE 12:53:32 64° ESE 12:58:41 10° S visible
01 Mar 5.1 12:20:12 10° NNE 12:24:55 33° E 12:29:36 10° SSE visible
01 Mar 4.4 13:59:53 10° N 14:04:16 28° WNW 14:08:39 10° SW visible
02 Mar 6.1 11:52:41 10° NE 11:56:11 18° E 11:59:39 10° SE visible
02 Mar 3.7 13:30:54 10° N 13:35:57 51° WNW 13:40:59 10° SW visible
03 Mar 3.6 13:02:15 10° NNE 13:07:30 86° ESE 13:12:44 10° SSW visible
04 Mar 4.6 12:33:56 10° NNE 12:38:57 45° E 12:43:56 10° S visible
05 Mar 5.7 12:06:05 10° NE 12:10:16 24° E 12:14:26 10° SSE visible
05 Mar 4.1 13:45:03 10° N 13:49:51 38° WNW 13:54:38 10° SW visible
06 Mar 6.4 11:39:20 10° ENE 11:41:28 12° E 11:43:38 10° ESE visible
06 Mar 3.5 13:16:15 10° N 13:21:28 72° WNW 13:26:38 10° SSW visible
07 Mar 4.0 12:47:46 10° NNE 12:52:58 62° ESE 12:58:07 10° S visible
08 Mar 5.2 12:19:40 10° NE 12:24:21 32° E 12:28:59 10° SSE visible
08 Mar 4.4 13:59:16 10° N 14:03:43 29° WNW 14:08:09 10° SW visible
